STARLINK-35788 (66831 NORAD) Tracking and Keplerian Element Data

This shows tracking and keplerian element data for the satellite.

Feedback or suggestion? Click here.




ElementValue
Catalog66831
NameSTARLINK-35788
Epoch Orbit410
Epoch Day354.25003472
Epoch Year2025
RAAN177.8249
Inclination69.9993
Eccentricity0.000306
Argument of Perigee266.1393
Mean Anonmoly323.5597
Mean Motion15.52491623
Decay Rate0.00033498
L11 66831U 25280L 25354.25003472 .00033498 00000+0 54547-3 0 9997
L22 66831 69.9993 177.8249 0003060 266.1393 323.5597 15.52491623 4105



Live tracking and technical data element details for STARLINK-35788 (NORAD 66831). STARLINK-35788 can be tracked NOW for your location showing map with azimuth and elevation plus other details from your city location.







IsCatalogInMostPopularTable: catalog: 66831, numindb: 11
Update: records affected: 1



GetName: 66831 STARLINK-35788

Hit Count: updated at: Mon, 09 Feb 2026 09:04:10 GMT